Regional Weather Roundup
Issued by NWS Sterling, VA

Current Version | Previous Version | Text Only | Print | Product List | Glossary On
Versions: 1 2 3 4 5 6 7 8 9 10 11 12 13 14 15 16 17 18 19 20 21 22 23 24 25 26 27 28 29 30 31 32 33 34 35 36 37 38 39 40 41 42 43 44 45 46 47 48 49 50
000
ASUS41 KLWX 190610
RWRLWX

REGIONAL WEATHER ROUNDUP
NATIONAL WEATHER SERVICE BALTIMORE MD/WASHINGTON DC
100 AM EST TUE FEB 19 2019

Note: "FAIR" indicates few or no clouds below 12,000 feet
with no significant weather and/or obstructions to visibility.
 TC=TEMPERATURE CELSIUS

 * =Non NWS site. Station does not report precipitation (e.g. rain,
    snow, etc.), thunder, or fog.

DCZ001-MDZ009-015-VAZ040>042-051-053>054-190700-
WASHINGTON METRO

CITY           SKY/WX    TMP DP  RH WIND       PRES   REMARKS
WASHINGTON NAT FAIR      36  20  52 N15       30.45R WCI  27
DULLES         MOCLDY    34  18  52 N13       30.45R WCI  25
ANDREWS AFB    FAIR      33  20  57 NW13G22   30.42R WCI  24
FT BELVOIR     FAIR      36  18  49 NW13      30.44R WCI  27
QUANTICO       MOCLDY    38  24  57 N8        30.47R WCI  32
COLLEGE PARK*  FAIR      33  19  57 NW7       30.45R WCI  26
MANASSAS*      FAIR      35  22  58 NW12      30.45R WCI  27
GAITHERSBURG*  FAIR      30  21  69 NW9       30.43R WCI  22

$$

MDZ006>007-011-014-190700-
BALTIMORE METRO

CITY           SKY/WX    TMP DP  RH WIND       PRES   REMARKS
BWI AIRPORT    FAIR      32  19  58 NW9       30.43R WCI  24
MD SCIENCE CTR   N/A     34  16  47 MISG      30.43R
MARTIN STATE   FAIR      32  23  69 W6        30.46R WCI  26
ANNAPOLIS      FAIR      37  22  54 NW13      30.43R WCI  29
FORT MEADE*    FAIR      32  21  64 NW7       30.46S WCI  26

$$

MDZ012-015-019>023-190700-
MARYLAND EASTERN SHORE

CITY           SKY/WX    TMP DP  RH WIND       PRES   REMARKS
OCEAN CITY     FAIR      36  22  56 NW8       30.41R WCI  30
SALISBURY      FAIR      36  22  56 NW17G24   30.42R WCI  26
BAY BRIDGE AP* FAIR      34  21  60 NW14G23   30.44R WCI  24
CAMBRIDGE*     CLEAR     36  21  55 NW12      30.43R WCI  27
EASTON*        FAIR      35  20  55 NW13      30.47R WCI  26

$$

MDZ017>025-190700-
SOUTHERN MARYLAND

CITY           SKY/WX    TMP DP  RH WIND       PRES   REMARKS
PATUXENT RIVER FAIR      38  23  55 N15       30.43R WCI  29
ST INIGOES     FAIR      41  22  46 NW9G16    30.43R
LEONARDTOWN*   FAIR      36  23  60 NW7       30.45R WCI  30

$$

MDZ003>005-190700-
NORTH CENTRAL MARYLAND

CITY           SKY/WX    TMP DP  RH WIND       PRES   REMARKS
FREDERICK*     FLURRIES  32  21  64 NW7       30.49R WCI  26
HAGERSTOWN APT FAIR      29  16  58 NW10      30.44R WCI  20
WESTMINSTER*   FAIR      28  18  64 NW7       30.41S WCI  21

$$

MDZ501>502-190700-
WESTERN MARYLAND

CITY           SKY/WX    TMP DP  RH WIND       PRES   REMARKS
OAKLAND*       CLOUDY    16  14  93 NW8       30.33R WCI   5
CUMBERLAND*    CLOUDY    28  15  59 NW10      30.53R WCI  18

$$

VAZ025>031-190700-
SHENANDOAH VALLEY

CITY           SKY/WX    TMP DP  RH WIND       PRES   REMARKS
WINCHESTER*    CLOUDY    32  19  59 N7        30.46R WCI  26
FRONT ROYAL*   CLOUDY    32  23  69 NE6       30.43R WCI  26
LURAY*         CLOUDY    36  23  60 CALM      30.42R
NEW MARKET*    CLOUDY    34  21  60 CALM      30.42R
WAYNESBORO*    CLOUDY    33  21  61 NW7       30.40R WCI  27

$$

WVZ021-048>050-054>055-190700-
EASTERN WEST VIRGINIA PANHANDLE

CITY           SKY/WX    TMP DP  RH WIND       PRES   REMARKS
MARTINSBURG    FAIR      30  17  58 NW12      30.44R WCI  20

$$

VAZ036>039-050-190700-
CENTRAL FOOTHILLS

CITY           SKY/WX    TMP DP  RH WIND       PRES   REMARKS
CHARLOTTESVILL CLOUDY    39  21  48 N3        30.42R
CULPEPER*      CLOUDY    38  23  54 N7        30.45R WCI  32
ORANGE*        MOCLDY    34  27  75 E3        30.43R
GORDONSVILLE*  MOCLDY    38  22  54 NW3       30.43R
WARRENTON*     CLOUDY    37  22  54 NW9       30.43R WCI  31

$$

VAZ055>057-190700-
NORTH AND CENTRAL PIEDMONT

CITY           SKY/WX    TMP DP  RH WIND       PRES   REMARKS
FREDERICKSBRG* CLOUDY    39  26  59 N10       30.44R WCI  32
STAFFORD*      MOCLDY    37  25  63 N8        30.48R WCI  30

$$

NCZ024-NYZ072-PAZ021-071-VAZ022-071-190700-
OTHER REGIONAL OBSERVATIONS

CITY           SKY/WX    TMP DP  RH WIND       PRES   REMARKS
NEW YORK CITY  FAIR      25  10  53 MISG      30.39R
PHILADELPHIA   MOCLDY    32  15  49 NW13      30.42R WCI  22
PITTSBURGH     FAIR      18  15  88 NW3       30.49R
ROANOKE        CLOUDY    34  22  61 NW5       30.44R WCI  30
RICHMOND       CLOUDY    39  24  55 N6        30.44R WCI  35
RALEIGH        MOCLDY    39  26  59 CALM      30.43R

$$

ANZ530>537-190700-
MARINE OBSERVATIONS

STATION/POSITION TIME  TEMP    WIND        PRES
                       AIR SEA DIR/SP/G
                 (UTC) (F)     (DEG/KT/KT) (MB)
THOMAS PT LIGHT  0600   35 38  320/ 13/ 14 1031.2R
BALT KEY BRIDGE  0536   34     350/ 16/ 22 1030.5R
COVE POINT       0536   37     350/ 23/ 27   N/A
LEWISETTA        0536   40 42  350/  9/ 14 1030.4R
SOLOMONS ISLAND  0536   38 40  330/  8/ 14 1030.2R
PINEY POINT      0542          360/ 11/ 12   N/A

$$




USA.gov is the U.S. government's official web portal to all federal, state and local government web resources and services.